Regional Weather Roundup
Issued by NWS Austin/San Antonio, TX

Home | Current Version | Previous Version | Text Only | Print | Product List | Glossary On
Versions: 1 2 3 4 5 6 7 8 9 10 11 12 13 14 15 16 17 18 19 20 21 22 23 24 25 26 27 28 29 30 31 32 33 34 35 36 37 38 39 40 41 42 43 44 45 46 47 48 49 50
000
ASUS44 KEWX 191610
RWREWX
SOUTH TEXAS REGIONAL WEATHER ROUNDUP
NATIONAL WEATHER SERVICE AUSTIN/SAN ANTONIO TX
1100 AM CDT MON APR 19 2021

NOTE: "FAIR" INDICATED FEW OR NO CLOUDS BELOW 12,000 FEET WITH NO
SIGNIFICANT WEATHER AND/OR OBSTRUCTIONS TO VISIBILITY.

* - THESE STATIONS ARE NOT NWS OR FAA STATIONS...AND ARE NOT SUBJECT
    TO NWS AND FAA QUALITY CONTROL.

TXZ171-172-183>190-191700-
TEXAS HILL COUNTRY AND EDWARDS PLATEAU

CITY           SKY/WX    TMP DP  RH WIND       PRES   REMARKS
JUNCTION       PTSUNNY   59  42  53 CALM      30.13S
*LLANO         PTSUNNY   59  43  55 W5        30.12F
BURNET         PTSUNNY   60  42  51 W3        30.13F
*HORSESHOE BAY PTSUNNY   62  46  57 CALM      30.13S
*LAGO VISTA    MOSUNNY   66  42  41 SW3       30.13S
*KERRVILLE     MOSUNNY   63  38  40 NW3       30.11F
*FREDERICKSBRG PTSUNNY   62  37  39 CALM      30.12F
*ROCKSPRINGS   PTSUNNY   61  39  44 MISG      30.16S
*BOERNE        MOSUNNY   61  37  41 CALM      30.12F
*CASTROVILLE   MOSUNNY   69  38  32 SW3       30.12F
HONDO          CLOUDY    66  37  34 VRB3      30.11F
*UVALDE        CLOUDY    63  40  41 SE6       30.14S
DEL RIO        CLOUDY    64  41  42 SE7       30.11S
*LAUGHLIN AFB  CLOUDY    61  40  44 SE5       30.12R
*SPOFFORD      NOT AVBL
*EAGLE PASS    CLOUDY    64  37  36 S7        30.12S
CARRIZO SPRGS  CLOUDY    64  39  39 S5        30.12S
*FAITH RANCH   CLOUDY    64  39  39 SE6       30.14S
$$

TXZ173-191>194-202-209-217>225-228-191700-
CENTRAL AND SOUTH CENTRAL TEXAS

CITY           SKY/WX    TMP DP  RH WIND       PRES   REMARKS
GEORGETOWN     MOSUNNY   61  44  53 SW3       30.14S
*TAYLOR        MOSUNNY   72  44  37 S3        30.12S
AUSTIN/BERGSTM PTSUNNY   65  41  41 VRB6      30.11S
AUSTIN/MABRY   MOSUNNY   67  41  38 CALM      30.12F
*PFLUGERVILLE  MOSUNNY   68  41  37 CALM      30.11S
SAN MARCOS     MOSUNNY   67  41  38 VRB5      30.12F
NEW BRAUNFELS  MOSUNNY   68  40  35 VRB5      30.09F
*RANDOLPH AFB  MOSUNNY   67  40  37 E5        30.09F
*SEGUIN        PTSUNNY   65  39  38 E8        30.14F
SAN ANTONIO    PTSUNNY   67  39  35 VRB6      30.10F
STINSON FIELD  MOSUNNY   70  41  34 VRB5      30.09F
*KELLY FIELD   MOSUNNY   68  42  37 E3        30.09S
*PLEASANTON    CLOUDY    68  41  37 SE7       30.12S
*KENEDY        PTSUNNY   70  40  33 E6        30.11S
*LA GRANGE     MOSUNNY   68  43  40 CALM      30.09F
*GIDDINGS      MOSUNNY   64  42  44 SE3       30.12S
*GONZALES      MOSUNNY   68  43  39 SE3       30.10F
$$

TXZ163>164-176>182-195>201-210>213-226-227-235-191700-
SOUTHEAST TEXAS

CITY           SKY/WX    TMP DP  RH WIND       PRES   REMARKS
COLLEGE STN    MOSUNNY   67  39  35 CALM      30.10F
*BRYAN         MOSUNNY   65  43  44 CALM      30.13F
*CALDWELL      MOSUNNY   66  42  41 S5        30.12S
*CROCKETT      MOSUNNY   66  41  39 CALM      30.12S
*BRENHAM       MOSUNNY   68  40  35 CALM      30.12S
HUNTSVILLE     MOSUNNY   69  45  41 NW3       30.11F
CONROE         SUNNY     68  39  34 NE6       30.11F
HOUSTON BUSH   PTSUNNY   69  39  33 E8        30.10F
HOUSTON HOBBY  PTSUNNY   69  40  34 NE8       30.10S
*HOUSTON SW AP MOSUNNY   68  44  42 NE6       30.12S
PEARLAND       MOSUNNY   68  42  38 NE9       30.12R
HOUSTON HOOKS  MOSUNNY   69  41  36 VRB5      30.10F
ELLINGTON FLD  MOSUNNY   68  43  40 MISG      30.11R
SUGAR LAND     MOSUNNY   71  41  33 E10       30.10S
*HOUSTON EXEC  MOSUNNY   66  43  42 E5        30.12F
*CLEVELAND MUN MOSUNNY   67  35  31 CALM      30.12S
*WHARTON       MOSUNNY   68  39  33 NE8       30.11F
*COLUMBUS      FAIR      66  42  41 E3        30.12F
*EAGLE LAKE    MOSUNNY   67  48  50 NE5       30.10F
$$

TXZ214>216-236>238-191700-
THE UPPER TEXAS COAST

CITY           SKY/WX    TMP DP  RH WIND       PRES   REMARKS
*ORANGE        MOSUNNY   69  43  38 NE9       30.12S
PORT ARTHUR    MOSUNNY   65  45  48 NE9       30.10R
GALVESTON      MOSUNNY   70  42  36 NE13      30.11S
ANGLETON       MOSUNNY   68  42  38 E7        30.10F
*BAY CITY      MOSUNNY   67  43  41 NE13      30.09F
PALACIOS       MOSUNNY   70  43  37 NE20      30.07F
$$

TXZ229>234-239>247-191700-
TEXAS COASTAL BEND AND RIO GRANDE PLAINS

CITY           SKY/WX    TMP DP  RH WIND       PRES   REMARKS
VICTORIA       MOSUNNY   70  43  37 NE12      30.08F
*BEEVILLE      CLOUDY    69  47  46 E10G16    30.10S
ROCKPORT       CLOUDY    68  45  43 E13       30.09S
*PORT ARANSAS  CLOUDY    66  52  61 NE14      30.11R
*PORT LAVACA   MOSUNNY   70  42  35 E12       30.10R
*INGLESIDE     SUNNY     68  45  42 E10       30.09R
CORPUS CHRISTI CLOUDY    65  49  56 NE7       30.10R
CORPUS NAS     PTSUNNY   66  51  58 NE10      30.09R
*ROBSTOWN      CLOUDY    67  48  51 NE6       30.11R
ALICE          CLOUDY    64  47  53 NE7       30.11R
KINGSVILLE NAS CLOUDY    64  48  56 N9        30.11R
COTULLA        CLOUDY    67  41  38 S8        30.13R
LAREDO         CLOUDY    65  44  46 NE6       30.11F
$$

TXZ248>255-191700-
DEEP SOUTH TEXAS

CITY           SKY/WX    TMP DP  RH WIND       PRES   REMARKS
BROWNSVILLE    CLOUDY    70  54  56 NW7       30.06S
PORT ISABEL    CLOUDY    68  55  63 NW8       30.06S
HARLINGEN      CLOUDY    65  54  67 N9        30.07S
*HEBBRONVILLE  CLOUDY    62  34  35 E7        30.12S
MCALLEN        CLOUDY    66  48  52 N8        30.09S
*WESLACO       CLOUDY    64  49  57 N5        30.08S
FALFURRIAS     CLOUDY    60  47  61 NE6       30.11S
EDINBURG       CLOUDY    64  50  59 N9        30.10S
*ZAPATA        CLOUDY    67  43  41 E6        30.12R
$$

TXZ213>215-236>238-242>244-246-247-251-254-255-191700-
CMAN STATIONS

STATION/POSITION TIME  TEMP    WIND        PRES    WAVE
                       AIR SEA DIR/SP/G            HT/PER
                 (UTC) (F)     (DEG/KT/KT) (MB)    (FT/S)
NORTH JETTY/GLS  1518   63 67   50/ 10/ 12 1018.2
EAGLE POINT      1524   62 64   40/  6/  7 1019.1
MORGANS POINT    1524   63 68   80/  4/  5 1019.4
MISSION/ARANSAS  1500   64      30/ 11     1020.0
PORT O`CONNOR    1530   64 65   70/ 14/ 16 1018.4
PORT ARANSAS     1500   64 70   30/ 15/ 17 1018.1
MALAQUITE BEACH  1530   65     360/ 12/ 14   N/A
BAFFIN BAY       1530   63 67  350/ 11/ 13 1018.3
PORT ISABEL      1530   65 70  340/  6/  8 1019.6
$$



USA.gov is the U.S. government's official web portal to all federal, state and local government web resources and services.